Location: Camaret
(48.2753°N, 4.5961°W)
Time: 01:27:24
(UTC+00:00)

SL-08 R/B - Pass Details

Date: 29 October 2020
Orbit: 946 x 994 km, 83.0° (Epoch: 26 November)

Event Time Altitude Azimuth Distance (km) Brightness Sun altitude
Rises 17:59:58 0° 353° (N) 3,662 7.5 -9.9°
Reaches altitude 10° 18:02:32 10° 357° (N) 2,705 6.8 -10.3°
Maximum altitude 18:08:39 61° 77° (ENE) 1,077 4.5 -11.3°
Drops below altitude 10° 18:14:39 10° 158° (SSE) 2,664 6.6 -12.3°
Sets 18:17:10 0° 162° (SSE) 3,602 7.4 -12.7°
